• en Belgique
  • Liste des pays
  • À 7 jours
  • Température de l'eau
  • Carte satellitaire
  • Carte météo
  • Widgets météo
  • user-avatar
    Se connecter

    Météo par heure à Icatu

    Ce jour, 18 Juillet, Mercredi

    Heure Température Précipitation Vent Pression Humidité
    00:00 +25°C° 0 mm 2 m/s 758 mmHg 92%
    01:00 +25°C° 0 mm 2 m/s 758 mmHg 93%
    02:00 +25°C° 0 mm 2 m/s 758 mmHg 93%
    03:00 +25°C° 0 mm 2 m/s 758 mmHg 93%
    04:00 +25°C° 0,3 mm 2 m/s 758 mmHg 94%
    05:00 +25°C° 0,3 mm 2 m/s 758 mmHg 94%
    06:00 +25°C° 0,3 mm 2 m/s 758 mmHg 95%
    07:00 +26°C° 0,6 mm 3 m/s 758 mmHg 91%
    08:00 +27°C° 0,6 mm 3 m/s 758 mmHg 87%
    09:00 +28°C° 0,6 mm 4 m/s 758 mmHg 83%
    10:00 +29°C° 0,3 mm 3 m/s 758 mmHg 75%
    11:00 +31°C° 0,3 mm 3 m/s 758 mmHg 66%
    12:00 +33°C° 0,3 mm 3 m/s 758 mmHg 58%
    13:00 +34°C° 0 mm 3 m/s 758 mmHg 57%
    14:00 +34°C° 0 mm 2 m/s 757 mmHg 55%
    15:00 +34°C° 0 mm 2 m/s 756 mmHg 54%
    16:00 +32°C° 0 mm 2 m/s 756 mmHg 60%
    17:00 +30°C° 0 mm 2 m/s 756 mmHg 66%
    18:00 +29°C° 0 mm 1 m/s 756 mmHg 72%
    19:00 +28°C° 0 mm 2 m/s 756 mmHg 76%
    20:00 +27°C° 0 mm 2 m/s 757 mmHg 79%
    21:00 +26°C° 0 mm 2 m/s 757 mmHg 83%
    22:00 +26°C° 0 mm 2 m/s 757 mmHg 85%
    23:00 +26°C° 0 mm 2 m/s 757 mmHg 88%

    Demain, 19 Juillet, Jeudi

    Heure Température Précipitation Vent Pression Humidité
    00:00 +25°C° 0 mm 2 m/s 757 mmHg 91%
    01:00 +25°C° 0,1 mm 2 m/s 757 mmHg 92%
    02:00 +25°C° 0,1 mm 2 m/s 757 mmHg 93%
    03:00 +25°C° 0,1 mm 2 m/s 756 mmHg 94%
    04:00 +24°C° 0,2 mm 2 m/s 756 mmHg 94%
    05:00 +24°C° 0,2 mm 2 m/s 757 mmHg 95%
    06:00 +24°C° 0,2 mm 2 m/s 757 mmHg 96%
    07:00 +26°C° 0,1 mm 2 m/s 757 mmHg 88%
    08:00 +27°C° 0,1 mm 2 m/s 758 mmHg 81%
    09:00 +29°C° 0,1 mm 3 m/s 758 mmHg 73%
    10:00 +30°C° 0 mm 2 m/s 758 mmHg 66%
    11:00 +32°C° 0 mm 2 m/s 758 mmHg 59%
    12:00 +34°C° 0 mm 2 m/s 758 mmHg 52%
    13:00 +35°C° 0 mm 2 m/s 757 mmHg 51%
    14:00 +35°C° 0 mm 2 m/s 756 mmHg 50%
    15:00 +35°C° 0 mm 2 m/s 755 mmHg 50%
    16:00 +32°C° 0 mm 2 m/s 755 mmHg 56%
    17:00 +31°C° 0 mm 2 m/s 755 mmHg 63%
    18:00 +29°C° 0 mm 2 m/s 755 mmHg 70%
    19:00 +28°C° 0 mm 2 m/s 756 mmHg 75%
    20:00 +27°C° 0 mm 2 m/s 756 mmHg 80%
    21:00 +26°C° 0 mm 2 m/s 757 mmHg 85%
    22:00 +26°C° 0 mm 2 m/s 757 mmHg 88%
    23:00 +26°C° 0 mm 2 m/s 757 mmHg 90%

    Après-demain, 20 Juillet, Vendredi

    Heure Température Précipitation Vent Pression Humidité
    00:00 +25°C° 0 mm 2 m/s 757 mmHg 93%
    01:00 +25°C° 0,1 mm 2 m/s 757 mmHg 94%
    02:00 +25°C° 0,1 mm 2 m/s 756 mmHg 94%
    03:00 +25°C° 0,1 mm 2 m/s 756 mmHg 95%
    04:00 +24°C° 0,2 mm 2 m/s 756 mmHg 95%
    05:00 +24°C° 0,2 mm 2 m/s 756 mmHg 96%
    06:00 +24°C° 0,2 mm 2 m/s 756 mmHg 96%
    07:00 +25°C° 0,1 mm 2 m/s 757 mmHg 90%
    08:00 +27°C° 0,1 mm 3 m/s 758 mmHg 83%
    09:00 +28°C° 0,1 mm 3 m/s 758 mmHg 76%
    10:00 +30°C° 0 mm 3 m/s 758 mmHg 67%
    11:00 +31°C° 0 mm 3 m/s 758 mmHg 59%
    12:00 +34°C° 0 mm 2 m/s 758 mmHg 50%
    13:00 +34°C° 0 mm 2 m/s 757 mmHg 49%
    14:00 +34°C° 0 mm 2 m/s 757 mmHg 48%
    15:00 +34°C° 0 mm 1 m/s 756 mmHg 47%
    16:00 +32°C° 0 mm 1 m/s 756 mmHg 54%
    17:00 +30°C° 0 mm 1 m/s 756 mmHg 61%
    18:00 +28°C° 0 mm 1 m/s 756 mmHg 68%
    19:00 +28°C° 0 mm 2 m/s 756 mmHg 72%
    20:00 +27°C° 0 mm 2 m/s 757 mmHg 76%
    21:00 +26°C° 0 mm 2 m/s 757 mmHg 80%
    22:00 +26°C° 0 mm 2 m/s 757 mmHg 82%
    23:00 +25°C° 0 mm 2 m/s 757 mmHg 85%

    21 Juillet, Samedi

    Heure Température Précipitation Vent Pression Humidité
    00:00 +25°C° 0 mm 2 m/s 757 mmHg 88%
    01:00 +25°C° 0 mm 2 m/s 757 mmHg 89%
    02:00 +25°C° 0 mm 2 m/s 757 mmHg 90%
    03:00 +25°C° 0 mm 2 m/s 756 mmHg 91%
    04:00 +24°C° 0,1 mm 2 m/s 757 mmHg 93%
    05:00 +24°C° 0,1 mm 2 m/s 757 mmHg 94%
    06:00 +24°C° 0,1 mm 2 m/s 757 mmHg 96%
    07:00 +25°C° 0,1 mm 2 m/s 758 mmHg 88%
    08:00 +27°C° 0,1 mm 3 m/s 758 mmHg 81%
    09:00 +29°C° 0,1 mm 3 m/s 759 mmHg 73%
    10:00 +30°C° 0 mm 3 m/s 759 mmHg 66%
    11:00 +31°C° 0 mm 3 m/s 758 mmHg 58%
    12:00 +34°C° 0 mm 3 m/s 758 mmHg 50%
    13:00 +34°C° 0 mm 2 m/s 757 mmHg 49%
    14:00 +35°C° 0 mm 2 m/s 757 mmHg 47%
    15:00 +35°C° 0 mm 2 m/s 756 mmHg 45%
    16:00 +32°C° 0 mm 2 m/s 756 mmHg 52%
    17:00 +31°C° 0 mm 2 m/s 756 mmHg 59%
    18:00 +29°C° 0 mm 1 m/s 756 mmHg 65%
    19:00 +28°C° 0 mm 2 m/s 757 mmHg 70%
    20:00 +27°C° 0 mm 2 m/s 757 mmHg 75%
    21:00 +27°C° 0 mm 2 m/s 757 mmHg 80%
    22:00 +26°C° 0 mm 2 m/s 757 mmHg 82%
    23:00 +26°C° 0 mm 3 m/s 757 mmHg 84%

    22 Juillet, Dimanche

    Heure Température Précipitation Vent Pression Humidité
    00:00 +26°C° 0 mm 3 m/s 757 mmHg 87%
    01:00 +26°C° 0,1 mm 3 m/s 757 mmHg 87%
    02:00 +26°C° 0,1 mm 3 m/s 756 mmHg 86%
    03:00 +26°C° 0,1 mm 3 m/s 756 mmHg 86%
    04:00 +26°C° 0,1 mm 3 m/s 756 mmHg 86%
    05:00 +25°C° 0,1 mm 3 m/s 757 mmHg 87%
    06:00 +25°C° 0,1 mm 3 m/s 757 mmHg 87%
    07:00 +27°C° 0 mm 3 m/s 757 mmHg 80%
    08:00 +28°C° 0 mm 4 m/s 758 mmHg 74%
    09:00 +30°C° 0 mm 4 m/s 759 mmHg 67%
    10:00 +32°C° 0 mm 4 m/s 758 mmHg 62%
    11:00 +33°C° 0 mm 3 m/s 758 mmHg 57%
    12:00 +34°C° 0 mm 3 m/s 758 mmHg 53%
    13:00 +34°C° 0,3 mm 3 m/s 757 mmHg 56%
    14:00 +34°C° 0,3 mm 3 m/s 757 mmHg 60%
    15:00 +32°C° 0,3 mm 2 m/s 756 mmHg 64%
    16:00 +31°C° 0,7 mm 2 m/s 756 mmHg 71%
    17:00 +29°C° 0,7 mm 2 m/s 756 mmHg 79%
    18:00 +27°C° 0,7 mm 2 m/s 756 mmHg 86%
    19:00 +27°C° 0,2 mm 2 m/s 757 mmHg 87%
    20:00 +27°C° 0,2 mm 3 m/s 757 mmHg 89%
    21:00 +26°C° 0,2 mm 3 m/s 758 mmHg 90%
    22:00 +26°C° 0,2 mm 3 m/s 758 mmHg 90%
    23:00 +26°C° 0,2 mm 3 m/s 758 mmHg 90%

    23 Juillet, Lundi

    Heure Température Précipitation Vent Pression Humidité
    00:00 +26°C° 0,2 mm 3 m/s 758 mmHg 90%
    01:00 +25°C° 0,5 mm 3 m/s 757 mmHg 91%
    02:00 +25°C° 0,5 mm 3 m/s 757 mmHg 92%
    03:00 +25°C° 0,5 mm 3 m/s 757 mmHg 93%
    04:00 +25°C° 0,4 mm 3 m/s 757 mmHg 93%
    05:00 +24°C° 0,4 mm 3 m/s 757 mmHg 94%
    06:00 +24°C° 0,4 mm 2 m/s 758 mmHg 94%
    07:00 +26°C° 0,1 mm 3 m/s 758 mmHg 87%
    08:00 +27°C° 0,1 mm 3 m/s 758 mmHg 80%
    09:00 +29°C° 0,1 mm 4 m/s 759 mmHg 74%
    10:00 +30°C° 0 mm 3 m/s 759 mmHg 67%
    11:00 +33°C° 0 mm 3 m/s 758 mmHg 60%
    12:00 +34°C° 0 mm 3 m/s 758 mmHg 53%
    13:00 +34°C° 0 mm 3 m/s 757 mmHg 54%
    14:00 +34°C° 0 mm 2 m/s 757 mmHg 54%
    15:00 +35°C° 0 mm 2 m/s 756 mmHg 55%
    16:00 +32°C° 0,3 mm 2 m/s 756 mmHg 64%
    17:00 +30°C° 0,3 mm 2 m/s 756 mmHg 73%
    18:00 +28°C° 0,3 mm 2 m/s 756 mmHg 82%
    19:00 +28°C° 0 mm 2 m/s 757 mmHg 85%
    20:00 +27°C° 0 mm 2 m/s 757 mmHg 88%
    21:00 +26°C° 0 mm 2 m/s 757 mmHg 91%
    22:00 +26°C° 0 mm 2 m/s 757 mmHg 91%
    23:00 +26°C° 0 mm 2 m/s 757 mmHg 92%
    Voir plus